When you browse on this site, cookies collect data to enhance your experience and personalize the content and advertising you see.
Visit our Privacy Policy to learn more. By continuing to use the site, you agree to this use of cookies and data.
  • en France
  • Liste des pays
  • À 7 jours
  • Température de l'eau
  • Carte météo
  • Widgets météo
  • user-avatar
    Se connecter

    Météo par heure à Salvador

    Ce jour, 10 Décembre, Mardi

    Heure Température Précipitation Vent Pression Humidité
    00:00 +26°C° 0 mm 4 m/s 756 mmHg 82%
    01:00 +26°C° 0 mm 3 m/s 756 mmHg 83%
    02:00 +26°C° 0 mm 3 m/s 755 mmHg 84%
    03:00 +25°C° 0 mm 2 m/s 755 mmHg 85%
    04:00 +25°C° 0.9 mm 2 m/s 755 mmHg 86%
    05:00 +25°C° 0.9 mm 3 m/s 756 mmHg 87%
    06:00 +25°C° 0.9 mm 3 m/s 756 mmHg 88%
    07:00 +26°C° 1.4 mm 3 m/s 756 mmHg 85%
    08:00 +27°C° 1.4 mm 4 m/s 756 mmHg 82%
    09:00 +28°C° 1.4 mm 4 m/s 757 mmHg 79%
    10:00 +29°C° 0.3 mm 4 m/s 756 mmHg 73%
    11:00 +30°C° 0.3 mm 5 m/s 756 mmHg 67%
    12:00 +32°C° 0.3 mm 5 m/s 756 mmHg 60%
    13:00 +32°C° 0 mm 5 m/s 755 mmHg 62%
    14:00 +32°C° 0 mm 5 m/s 754 mmHg 64%
    15:00 +30°C° 0 mm 6 m/s 754 mmHg 66%
    16:00 +29°C° 0 mm 6 m/s 754 mmHg 70%
    17:00 +29°C° 0 mm 6 m/s 754 mmHg 75%
    18:00 +28°C° 0 mm 5 m/s 754 mmHg 79%
    19:00 +28°C° 0 mm 5 m/s 755 mmHg 81%
    20:00 +27°C° 0 mm 5 m/s 755 mmHg 83%
    21:00 +27°C° 0 mm 5 m/s 755 mmHg 85%
    22:00 +27°C° 0 mm 5 m/s 755 mmHg 85%
    23:00 +26°C° 0 mm 5 m/s 755 mmHg 85%

    Demain, 11 Décembre, Mercredi

    Heure Température Précipitation Vent Pression Humidité
    00:00 +26°C° 0 mm 4 m/s 755 mmHg 86%
    01:00 +26°C° 0 mm 4 m/s 755 mmHg 86%
    02:00 +26°C° 0 mm 4 m/s 754 mmHg 85%
    03:00 +25°C° 0 mm 4 m/s 754 mmHg 85%
    04:00 +26°C° 0 mm 4 m/s 754 mmHg 83%
    05:00 +26°C° 0 mm 3 m/s 755 mmHg 81%
    06:00 +26°C° 0 mm 3 m/s 755 mmHg 79%
    07:00 +27°C° 0 mm 3 m/s 755 mmHg 73%
    08:00 +28°C° 0 mm 3 m/s 756 mmHg 66%
    09:00 +29°C° 0 mm 2 m/s 756 mmHg 59%
    10:00 +30°C° 0 mm 3 m/s 756 mmHg 58%
    11:00 +30°C° 0 mm 4 m/s 755 mmHg 57%
    12:00 +30°C° 0 mm 4 m/s 755 mmHg 55%
    13:00 +30°C° 0 mm 5 m/s 754 mmHg 56%
    14:00 +30°C° 0 mm 5 m/s 753 mmHg 57%
    15:00 +30°C° 0 mm 5 m/s 753 mmHg 58%
    16:00 +29°C° 0 mm 5 m/s 753 mmHg 62%
    17:00 +28°C° 0 mm 5 m/s 753 mmHg 66%
    18:00 +28°C° 0 mm 5 m/s 753 mmHg 70%
    19:00 +27°C° 0 mm 6 m/s 754 mmHg 74%
    20:00 +27°C° 0 mm 6 m/s 754 mmHg 77%
    21:00 +27°C° 0 mm 6 m/s 755 mmHg 81%
    22:00 +27°C° 0 mm 5 m/s 755 mmHg 82%
    23:00 +26°C° 0 mm 5 m/s 754 mmHg 83%

    Après-demain, 12 Décembre, Jeudi

    Heure Température Précipitation Vent Pression Humidité
    00:00 +26°C° 0 mm 5 m/s 754 mmHg 84%
    01:00 +26°C° 0 mm 4 m/s 754 mmHg 84%
    02:00 +26°C° 0 mm 4 m/s 754 mmHg 84%
    03:00 +26°C° 0 mm 4 m/s 753 mmHg 85%
    04:00 +26°C° 0.1 mm 4 m/s 754 mmHg 84%
    05:00 +26°C° 0.1 mm 4 m/s 754 mmHg 84%
    06:00 +26°C° 0.1 mm 4 m/s 754 mmHg 83%
    07:00 +27°C° 0 mm 3 m/s 755 mmHg 76%
    08:00 +29°C° 0 mm 3 m/s 755 mmHg 69%
    09:00 +30°C° 0 mm 2 m/s 755 mmHg 62%
    10:00 +30°C° 0 mm 3 m/s 755 mmHg 62%
    11:00 +30°C° 0 mm 4 m/s 755 mmHg 62%
    12:00 +32°C° 0 mm 4 m/s 754 mmHg 62%
    13:00 +30°C° 0 mm 5 m/s 754 mmHg 64%
    14:00 +30°C° 0 mm 5 m/s 753 mmHg 67%
    15:00 +30°C° 0 mm 6 m/s 753 mmHg 69%
    16:00 +29°C° 0 mm 6 m/s 753 mmHg 70%
    17:00 +28°C° 0 mm 5 m/s 753 mmHg 72%
    18:00 +27°C° 0 mm 5 m/s 753 mmHg 74%
    19:00 +27°C° 0 mm 5 m/s 754 mmHg 75%
    20:00 +26°C° 0 mm 4 m/s 754 mmHg 76%
    21:00 +26°C° 0 mm 4 m/s 755 mmHg 78%
    22:00 +26°C° 0 mm 4 m/s 755 mmHg 78%
    23:00 +26°C° 0 mm 3 m/s 755 mmHg 78%

    13 Décembre, Vendredi

    Heure Température Précipitation Vent Pression Humidité
    00:00 +25°C° 0 mm 3 m/s 755 mmHg 78%
    01:00 +25°C° 0 mm 3 m/s 755 mmHg 79%
    02:00 +25°C° 0 mm 3 m/s 754 mmHg 80%
    03:00 +25°C° 0 mm 3 m/s 754 mmHg 81%
    04:00 +25°C° 0 mm 3 m/s 755 mmHg 80%
    05:00 +26°C° 0 mm 3 m/s 755 mmHg 80%
    06:00 +26°C° 0 mm 3 m/s 755 mmHg 80%
    07:00 +27°C° 0.1 mm 3 m/s 755 mmHg 74%
    08:00 +28°C° 0.1 mm 3 m/s 756 mmHg 69%
    09:00 +29°C° 0.1 mm 3 m/s 756 mmHg 64%
    10:00 +30°C° 0 mm 3 m/s 755 mmHg 62%
    11:00 +30°C° 0 mm 4 m/s 755 mmHg 59%
    12:00 +32°C° 0 mm 4 m/s 754 mmHg 57%
    13:00 +30°C° 0 mm 5 m/s 754 mmHg 57%
    14:00 +30°C° 0 mm 5 m/s 754 mmHg 56%
    15:00 +30°C° 0 mm 5 m/s 753 mmHg 56%
    16:00 +29°C° 0 mm 5 m/s 754 mmHg 61%
    17:00 +28°C° 0 mm 5 m/s 754 mmHg 67%
    18:00 +28°C° 0 mm 5 m/s 754 mmHg 72%
    19:00 +27°C° 0 mm 5 m/s 754 mmHg 75%
    20:00 +27°C° 0 mm 5 m/s 755 mmHg 77%
    21:00 +27°C° 0 mm 5 m/s 755 mmHg 80%
    22:00 +27°C° 0.1 mm 5 m/s 755 mmHg 81%
    23:00 +27°C° 0.1 mm 5 m/s 755 mmHg 83%

    14 Décembre, Samedi

    Heure Température Précipitation Vent Pression Humidité
    00:00 +27°C° 0.1 mm 5 m/s 755 mmHg 85%
    01:00 +27°C° 0.3 mm 5 m/s 755 mmHg 86%
    02:00 +26°C° 0.3 mm 5 m/s 754 mmHg 86%
    03:00 +26°C° 0.3 mm 5 m/s 754 mmHg 87%
    04:00 +26°C° 0.5 mm 5 m/s 754 mmHg 87%
    05:00 +27°C° 0.5 mm 5 m/s 755 mmHg 87%
    06:00 +27°C° 0.5 mm 5 m/s 755 mmHg 87%
    07:00 +28°C° 0.1 mm 4 m/s 756 mmHg 80%
    08:00 +29°C° 0.1 mm 4 m/s 756 mmHg 74%
    09:00 +30°C° 0.1 mm 3 m/s 756 mmHg 67%
    10:00 +30°C° 0.1 mm 4 m/s 756 mmHg 66%
    11:00 +32°C° 0.1 mm 4 m/s 756 mmHg 65%
    12:00 +32°C° 0.1 mm 5 m/s 755 mmHg 64%
    13:00 +32°C° 0.1 mm 5 m/s 755 mmHg 66%
    14:00 +30°C° 0.1 mm 6 m/s 755 mmHg 68%
    15:00 +30°C° 0.1 mm 6 m/s 755 mmHg 70%
    16:00 +30°C° 0 mm 6 m/s 755 mmHg 72%
    17:00 +29°C° 0 mm 6 m/s 755 mmHg 75%
    18:00 +28°C° 0 mm 5 m/s 755 mmHg 78%
    19:00 +28°C° 0 mm 6 m/s 755 mmHg 78%
    20:00 +28°C° 0 mm 6 m/s 756 mmHg 79%
    21:00 +28°C° 0 mm 6 m/s 756 mmHg 79%
    22:00 +28°C° 0 mm 6 m/s 756 mmHg 79%
    23:00 +27°C° 0 mm 6 m/s 756 mmHg 79%

    15 Décembre, Dimanche

    Heure Température Précipitation Vent Pression Humidité
    00:00 +27°C° 0 mm 6 m/s 756 mmHg 79%
    01:00 +27°C° 0.1 mm 5 m/s 755 mmHg 80%
    02:00 +27°C° 0.1 mm 5 m/s 755 mmHg 81%
    03:00 +27°C° 0.1 mm 4 m/s 755 mmHg 82%
    04:00 +27°C° 0.7 mm 5 m/s 755 mmHg 83%
    05:00 +26°C° 0.7 mm 5 m/s 755 mmHg 85%
    06:00 +26°C° 0.7 mm 5 m/s 756 mmHg 87%
    07:00 +27°C° 0.5 mm 5 m/s 756 mmHg 84%
    08:00 +28°C° 0.5 mm 6 m/s 756 mmHg 81%
    09:00 +29°C° 0.5 mm 6 m/s 757 mmHg 78%
    10:00 +29°C° 0 mm 6 m/s 756 mmHg 73%
    11:00 +30°C° 0 mm 6 m/s 756 mmHg 68%
    12:00 +32°C° 0 mm 6 m/s 756 mmHg 63%
    13:00 +32°C° 0 mm 6 m/s 755 mmHg 64%
    14:00 +30°C° 0 mm 6 m/s 755 mmHg 64%
    15:00 +30°C° 0 mm 6 m/s 754 mmHg 65%
    16:00 +29°C° 0 mm 5 m/s 754 mmHg 69%
    17:00 +28°C° 0 mm 5 m/s 755 mmHg 74%
    18:00 +28°C° 0 mm 5 m/s 755 mmHg 79%
    19:00 +27°C° 0.3 mm 5 m/s 755 mmHg 82%
    20:00 +27°C° 0.3 mm 6 m/s 756 mmHg 84%
    21:00 +27°C° 0.3 mm 6 m/s 756 mmHg 87%
    22:00 +27°C° 0.5 mm 6 m/s 756 mmHg 87%
    23:00 +27°C° 0.5 mm 6 m/s 756 mmHg 87%
    Voir plus